This is the latest recevied weather packets stored in our database for station/object N1HRK. If no packets are shown the sender has not sent any weather packets the latest 10 day(s).
| Time | Temp. | Humidity | Pressure | Rain* | Wind** | Luminosity | Snow |
|---|---|---|---|---|---|---|---|
| 1777990322 | 17.78° C | 63% | 1011.1 hPa | 0 mm | - | - | - |
| 1777989723 | 18.33° C | 64% | 1011.2 hPa | 0 mm | - | - | - |
| 1777989123 | 18.89° C | 64% | 1011.2 hPa | 0 mm | - | - | - |
| 1777988524 | 17.78° C | 64% | 1011.1 hPa | 0 mm | - | - | - |
| 1777987922 | 17.78° C | 67% | 1011.3 hPa | 0 mm | - | - | - |
| 1777987324 | 17.22° C | 68% | 1011.3 hPa | 0 mm | - | - | - |
| 1777986723 | 16.67° C | 71% | 1011.4 hPa | 0 mm | - | - | - |
| 1777986124 | 16.11° C | 73% | 1011.5 hPa | 0 mm | - | - | - |
| 1777985523 | 15.56° C | 74% | 1011.5 hPa | 0 mm | - | - | - |
| 1777984923 | 15° C | 76% | 1011.6 hPa | 0 mm | - | - | - |
| 1777984323 | 15° C | 77% | 1011.8 hPa | 0 mm | - | - | - |
| 1777983726 | 14.44° C | 78% | 1011.5 hPa | 0 mm | - | - | - |
| 1777983154 | 14.44° C | 80% | 1011.6 hPa | 0 mm | - | - | - |
| 1777983123 | 14.44° C | 80% | 1011.6 hPa | 0 mm | - | - | - |
| 1777982523 | 13.89° C | 82% | 1011.5 hPa | 0 mm | - | - | - |
| 1777981923 | 13.33° C | 83% | 1011.5 hPa | 0 mm | - | - | - |
| 1777981353 | 12.78° C | 85% | 1011.6 hPa | 0 mm | - | - | - |
| 1777981322 | 12.78° C | 85% | 1011.6 hPa | 0 mm | - | - | - |
| 1777980723 | 12.78° C | 86% | 1011.3 hPa | 0 mm | - | - | - |
| 1777980122 | 12.22° C | 87% | 1011.4 hPa | 0 mm | - | - | - |
| 1777979523 | 11.67° C | 88% | 1011.4 hPa | 0 mm | - | - | - |
| 1777978953 | 11.67° C | 88% | 1011.3 hPa | 0 mm | - | - | - |
| 1777978922 | 11.67° C | 88% | 1011.3 hPa | 0 mm | - | - | - |
| 1777978324 | 11.67° C | 89% | 1011.2 hPa | 0 mm | - | - | - |
| 1777977723 | 11.67° C | 90% | 1011.2 hPa | 0 mm | - | - | - |
* Rain latest hour (hover to see other rain measurements)
** Current wind speed in m/s (hover to see current wind gust speed)